Location: Newark
(23.1505°N, 82.3567°W)
Time: 04:36:42
(UTC+00:00)

N. Korean satellite - Visible Passes

Search period start: 28 January 2020 00:00
Search period end: 07 February 2020 00:00
Orbit: 454 x 507 km, 97.2° (Epoch: 27 January)

Date Brightness Start Highest point End Pass type
(mag) Time Alt. Az. Time Alt. Az. Time Alt. Az.
28 Jan 7.7 10:50:39 10° NNE 10:54:09 46° E 10:57:41 10° S visible
29 Jan 9.5 10:25:57 10° NE 10:28:38 19° E 10:31:19 10° SE visible
30 Jan 7.2 11:33:05 10° N 11:36:25 34° WNW 11:39:46 10° SW visible
30 Jan 10.0 23:33:56 10° SW 23:35:42 14° W 23:37:29 10° WNW visible
31 Jan 6.6 11:07:20 10° N 11:11:00 89° WSW 11:14:41 10° SSW visible
01 Feb 8.4 10:42:08 10° NNE 10:45:31 34° E 10:48:54 10° SSE visible
02 Feb 9.9 10:17:51 10° ENE 10:19:58 15° E 10:22:06 10° SE visible
03 Feb 6.9 11:24:16 10° N 11:27:48 46° WNW 11:31:22 10° SSW visible
04 Feb 7.0 10:58:42 10° NNE 11:02:22 66° E 11:06:02 10° S visible
05 Feb 9.0 10:33:44 10° NE 10:36:51 26° E 10:39:59 10° SSE visible
06 Feb 10.2 10:10:10 10° ENE 10:11:17 11° E 10:12:24 10° ESE visible
06 Feb 7.6 11:41:29 10° NNW 11:44:34 26° WNW 11:47:40 10° SW visible
